DW7104 Weather Reports


time (UTC)temp
F
wind
direction
speed
knots
gust
knots
rain 1hr
in
rain 24hr
in
rain mn
in
humidity
%
barometer
mb
20260510213033 66 37 0.0 0.0 0.00 0.22 0.00 84 1012.5
20260510212526 66 37 0.0 0.0 0.00 0.22 0.00 83 1012.5
20260510212015 66 37 0.0 0.9 0.00 0.22 0.00 82 1012.5
20260510211509 66 37 0.0 0.9 0.00 0.22 0.00 83 1012.6
20260510211001 66 37 0.0 0.9 0.00 0.22 0.00 82 1012.5
20260510210556 66 37 0.0 0.9 0.00 0.22 0.00 83 1012.5
20260510210048 66 30 0.0 0.0 0.00 0.22 0.00 82 1012.5
20260510205538 66 30 0.0 0.0 0.00 0.26 0.00 83 1012.3
20260510205032 66 30 0.0 0.9 0.00 0.26 0.00 82 1012.2
20260510204524 66 30 0.0 0.9 0.00 0.26 0.00 81 1012.2
20260510204013 66 56 0.0 0.0 0.00 0.26 0.00 81 1012.2
20260510203504 67 56 0.0 0.9 0.00 0.26 0.00 81 1012.1
20260510203058 67 56 0.0 0.9 0.00 0.26 0.00 82 1012.2
20260510202551 66 56 0.0 0.9 0.00 0.26 0.00 82 1012.1
20260510202043 67 55 0.0 0.9 0.00 0.26 0.00 81 1012.2
20260510201538 67 60 0.0 0.9 0.00 0.26 0.00 81 1012.2
20260510201031 67 46 0.0 0.9 0.00 0.26 0.00 82 1012.1
20260510200522 66 74 0.0 0.9 0.00 0.26 0.00 81 1012.3
20260510200017 66 23 0.0 0.9 0.00 0.35 0.00 82 1012.3
20260510195504 66 65 0.0 0.9 0.00 0.35 0.00 82 1012.4
20260510195059 66 84 0.0 0.9 0.00 0.35 0.00 81 1012.4
20260510194557 66 37 0.0 0.9 0.00 0.35 0.00 82 1012.5
20260510194045 66 46 0.0 0.0 0.00 0.35 0.00 82 1012.4
20260510193539 66 47 0.0 0.0 0.00 0.35 0.00 82 1012.4
20260510193033 66 46 0.0 0.0 0.00 0.35 0.00 83 1012.4
20260510192527 66 46 0.0 0.0 0.00 0.35 0.00 82 1012.4
20260510192017 66 46 0.0 0.0 0.00 0.35 0.00 82 1012.5
20260510191511 66 46 0.0 0.9 0.00 0.35 0.00 82 1012.6
20260510191005 66 46 0.0 0.9 0.00 0.35 0.00 81 1012.6
20260510190559 66 46 0.0 0.0 0.00 0.35 0.00 81 1012.6
20260510190055 66 46 0.0 0.0 0.00 0.35 0.00 80 1012.6
20260510185544 67 46 0.0 0.0 0.00 0.37 0.00 80 1012.7
20260510185037 67 46 0.0 0.0 0.00 0.37 0.00 79 1012.6
20260510184535 67 46 0.0 0.9 0.00 0.37 0.00 77 1012.6
20260510184022 67 49 0.0 0.9 0.00 0.37 0.00 77 1012.5
20260510183515 68 17 0.0 0.9 0.00 0.37 0.00 76 1012.6
20260510183007 68 7 0.0 0.9 0.00 0.37 0.00 75 1012.6
20260510182604 68 20 0.0 2.6 0.00 0.37 0.00 75 1012.6
20260510182055 69 15 0.0 2.6 0.00 0.37 0.00 73 1012.6
20260510181554 69 10 0.0 1.7 0.00 0.37 0.00 75 1012.5
20260510181041 69 17 0.0 1.7 0.00 0.37 0.00 74 1012.6
20260510180534 68 63 0.0 1.7 0.00 0.37 0.00 74 1012.7
20260510180025 68 25 0.0 3.5 0.00 0.37 0.00 74 1012.6
20260510175513 68 337 0.0 3.5 0.00 0.37 0.00 73 1012.8
20260510175006 68 221 0.0 2.6 0.00 0.37 0.00 76 1012.9
20260510174600 68 41 0.0 2.6 0.00 0.37 0.00 77 1012.8
20260510174053 68 11 0.0 1.7 0.00 0.37 0.00 75 1012.9
20260510173540 68 349 0.0 1.7 0.00 0.37 0.00 77 1012.9
20260510173037 67 336 0.0 1.7 0.00 0.37 0.00 78 1012.9
20260510172525 67 26 0.0 0.9 0.00 0.37 0.00 82 1012.9
20260510172015 66 41 0.0 0.9 0.00 0.37 0.00 82 1012.7
20260510171510 66 25 0.0 0.9 0.00 0.37 0.00 81 1012.6
20260510171001 66 52 0.0 0.9 0.00 0.37 0.00 80 1012.6
20260510170555 66 51 0.0 0.9 0.00 0.37 0.00 81 1012.7
20260510170055 65 72 0.0 0.9 0.00 0.37 0.00 82 1012.7
20260510165541 65 342 0.0 0.9 0.00 0.37 0.00 85 1012.9
20260510165033 65 20 0.0 0.9 0.00 0.37 0.00 84 1013.1
20260510164524 65 53 0.0 0.9 0.00 0.37 0.00 86 1013.0
20260510164018 65 29 0.0 0.9 0.00 0.37 0.00 84 1013.0
20260510163512 65 70 0.0 2.6 0.00 0.37 0.00 84 1013.0
20260510163009 64 48 0.0 2.6 0.00 0.37 0.00 85 1013.0
20260510162559 64 34 0.0 2.6 0.00 0.37 0.00 86 1013.1
20260510162054 63 196 0.0 1.7 0.00 0.37 0.00 87 1013.1
20260510161545 63 288 0.0 0.9 0.00 0.37 0.00 88 1013.1
20260510161037 62 66 0.0 0.9 0.00 0.37 0.00 87 1013.1
20260510160531 62 17 0.0 1.7 0.00 0.37 0.00 89 1013.2
20260510160028 62 305 0.0 0.9 0.00 0.37 0.00 91 1013.0
20260510155520 61 223 0.0 1.7 0.00 0.37 0.00 91 1013.1
20260510155010 61 302 0.0 0.9 0.00 0.37 0.00 92 1013.1
20260510154603 60 51 0.0 0.0 0.00 0.37 0.00 92 1013.2
20260510154053 59 59 0.0 0.9 0.00 0.37 0.00 92 1013.3
20260510153546 59 347 0.0 0.9 0.00 0.37 0.00 93 1013.5
20260510153040 59 55 0.0 0.9 0.00 0.37 0.00 93 1013.7
20260510152534 58 79 0.0 0.9 0.00 0.37 0.00 93 1013.7
20260510152022 58 2 0.0 0.9 0.00 0.37 0.00 93 1013.6
20260510151514 58 25 0.0 0.9 0.00 0.37 0.00 94 1013.7
20260510151004 57 25 0.0 0.9 0.00 0.37 0.00 94 1013.7
20260510150557 57 52 0.0 0.9 0.00 0.37 0.00 94 1013.8
20260510150054 57 4 0.0 0.9 0.00 0.37 0.00 94 1013.7
20260510145549 56 347 0.0 0.9 0.00 0.37 0.00 94 1013.7
20260510145036 56 53 0.0 0.0 0.00 0.37 0.00 94 1013.5
20260510144530 55 69 0.0 0.9 0.00 0.37 0.00 94 1013.6
20260510144020 55 34 0.0 0.0 0.00 0.37 0.00 94 1013.5
20260510143513 55 34 0.0 0.9 0.00 0.37 0.00 94 1013.5
20260510143010 55 20 0.0 0.9 0.00 0.37 0.00 94 1013.4
20260510142559 55 20 0.0 0.9 0.00 0.37 0.00 94 1013.4
20260510142051 55 20 0.0 0.0 0.00 0.37 0.00 94 1013.3
20260510141547 55 20 0.0 0.0 0.00 0.37 0.00 94 1013.2
20260510141036 55 22 0.0 0.9 0.00 0.37 0.00 94 1013.2
20260510140530 55 15 0.0 0.9 0.00 0.37 0.00 94 1013.2
20260510140021 55 15 0.0 0.0 0.00 0.37 0.00 94 1013.2
20260510135516 55 65 0.0 0.9 0.00 0.37 0.00 94 1013.2
20260510135008 55 8 0.0 0.0 0.00 0.37 0.00 94 1013.2
20260510134608 55 8 0.0 0.0 0.00 0.37 0.00 94 1013.2
20260510134054 55 4 0.0 0.9 0.00 0.37 0.00 94 1013.0
20260510133548 55 307 0.0 0.9 0.00 0.37 0.00 95 1013.0
20260510133038 55 39 0.0 0.0 0.00 0.37 0.00 95 1012.9
20260510132531 55 39 0.0 0.0 0.00 0.37 0.00 95 1013.0
20260510132022 55 39 0.0 0.0 0.00 0.37 0.00 95 1013.1
20260510131513 55 39 0.0 0.0 0.00 0.37 0.00 95 1013.1
20260510131005 55 39 0.0 0.0 0.00 0.37 0.00 95 1013.1
20260510130600 54 39 0.0 0.0 0.00 0.37 0.00 95 1013.1
20260510130053 54 39 0.0 0.0 0.00 0.37 0.00 95 1013.1
20260510125543 54 39 0.0 0.0 0.00 0.39 0.00 95 1013.1
20260510125036 54 39 0.0 0.0 0.00 0.39 0.00 95 1013.1
20260510124528 54 39 0.0 0.0 0.00 0.39 0.00 95 1012.9
20260510124025 54 39 0.0 0.0 0.00 0.39 0.00 95 1012.9
20260510123513 54 39 0.0 0.0 0.00 0.39 0.00 95 1012.8
20260510123007 54 39 0.0 0.0 0.00 0.39 0.00 95 1012.8
20260510122601 54 39 0.0 0.0 0.00 0.39 0.00 95 1012.7
20260510122052 54 25 0.0 0.0 0.00 0.39 0.00 95 1012.7
20260510121543 53 25 0.0 0.0 0.00 0.39 0.00 95 1012.7
20260510121036 53 25 0.0 0.0 0.00 0.39 0.00 95 1012.7
20260510120528 53 25 0.0 0.0 0.00 0.39 0.00 95 1012.7
20260510120019 53 25 0.0 0.0 0.00 0.39 0.00 95 1012.8
20260510115513 53 25 0.0 0.9 0.00 0.39 0.00 95 1012.7
20260510115005 53 25 0.0 0.9 0.00 0.39 0.00 95 1012.4
20260510114602 53 25 0.0 0.0 0.00 0.39 0.00 95 1012.3
20260510114053 53 25 0.0 0.0 0.00 0.39 0.00 95 1012.2
20260510113545 53 25 0.0 0.0 0.00 0.39 0.00 95 1012.2
20260510113040 53 25 0.0 0.0 0.00 0.39 0.00 95 1012.0
20260510112533 52 25 0.0 0.9 0.00 0.39 0.00 95 1012.1
20260510112024 52 25 0.0 0.9 0.00 0.39 0.00 95 1012.1
20260510111518 52 25 0.0 0.0 0.00 0.39 0.00 95 1012.2
20260510111010 52 25 0.0 0.0 0.00 0.39 0.00 95 1012.3
20260510110504 52 25 0.0 0.0 0.00 0.39 0.00 95 1012.3
20260510110059 52 25 0.0 0.0 0.00 0.39 0.00 95 1012.2
20260510105555 52 25 0.0 0.0 0.00 0.39 0.00 95 1012.2
20260510105046 52 25 0.0 0.0 0.00 0.39 0.00 95 1012.1
20260510104539 52 25 0.0 0.0 0.00 0.39 0.00 95 1012.1
20260510104030 52 25 0.0 0.0 0.00 0.39 0.00 95 1012.0
20260510103523 51 25 0.0 0.0 0.00 0.39 0.00 95 1012.0
20260510103016 51 25 0.0 0.0 0.00 0.39 0.00 95 1011.9
20260510102509 51 25 0.0 0.0 0.00 0.39 0.00 95 1011.9
20260510102104 51 25 0.0 0.0 0.00 0.39 0.00 95 1012.0
20260510101605 51 25 0.0 0.0 0.00 0.39 0.00 95 1011.9
20260510101046 51 25 0.0 0.0 0.00 0.39 0.00 95 1011.8
20260510100539 51 25 0.0 0.0 0.00 0.39 0.00 95 1012.0
20260510100037 51 25 0.0 0.0 0.00 0.39 0.00 95 1012.1
20260510095524 51 25 0.0 0.0 0.00 0.39 0.00 95 1012.1
20260510095016 51 25 0.0 0.0 0.00 0.39 0.00 95 1012.1
20260510094523 51 25 0.0 0.0 0.00 0.39 0.00 95 1012.2
20260510094003 51 25 0.0 0.0 0.00 0.39 0.00 95 1012.3
20260510093557 52 25 0.0 0.0 0.00 0.39 0.00 95 1012.3
20260510093051 52 25 0.0 0.0 0.00 0.39 0.00 95 1012.3
20260510092544 52 25 0.0 0.0 0.00 0.39 0.00 95 1012.2
20260510092038 52 25 0.0 0.0 0.00 0.39 0.00 95 1012.3
20260510091531 52 25 0.0 0.0 0.00 0.39 0.00 95 1012.3
20260510091023 52 25 0.0 0.0 0.00 0.39 0.00 95 1012.3
20260510090515 52 25 0.0 0.0 0.00 0.39 0.00 95 1012.2
20260510090010 52 25 0.0 0.0 0.00 0.39 0.00 95 1012.1
20260510085503 52 25 0.0 0.0 0.00 0.39 0.00 95 1012.4
20260510085059 52 25 0.0 0.0 0.00 0.39 0.00 95 1012.4
20260510084552 52 25 0.0 0.0 0.00 0.39 0.00 95 1012.6
20260510084045 52 25 0.0 0.0 0.00 0.39 0.00 95 1012.4
20260510083539 52 25 0.0 0.0 0.00 0.39 0.00 95 1012.4
20260510083031 52 25 0.0 0.0 0.00 0.39 0.00 95 1012.4
20260510082522 52 25 0.0 0.0 0.00 0.39 0.00 95 1012.2
20260510082015 52 25 0.0 0.0 0.00 0.39 0.00 95 1012.2
20260510081517 52 25 0.0 0.0 0.00 0.39 0.00 95 1012.1
20260510081100 52 25 0.0 0.0 0.00 0.39 0.00 95 1012.0
20260510080552 52 25 0.0 0.0 0.00 0.39 0.00 95 1011.7
20260510080043 52 25 0.0 0.0 0.00 0.39 0.00 95 1011.5
20260510075531 52 25 0.0 0.0 0.00 0.39 0.00 95 1011.4
20260510075022 52 25 0.0 0.0 0.00 0.39 0.00 95 1011.3
20260510074513 52 25 0.0 0.0 0.00 0.39 0.00 95 1011.4
20260510074006 52 25 0.0 0.0 0.00 0.39 0.00 95 1011.5
20260510073602 52 25 0.0 0.0 0.00 0.39 0.00 95 1011.5
20260510073102 52 25 0.0 0.0 0.00 0.39 0.00 95 1011.5
20260510072546 52 25 0.0 0.0 0.00 0.39 0.00 95 1011.4
20260510072042 52 25 0.0 0.0 0.00 0.39 0.00 95 1011.6
20260510071533 52 25 0.0 0.0 0.00 0.39 0.00 95 1011.6
20260510071024 52 25 0.0 0.0 0.00 0.39 0.00 95 1011.5
20260510070518 52 25 0.0 0.0 0.00 0.39 0.00 95 1011.6
20260510070008 52 25 0.0 0.0 0.00 0.39 0.00 95 1011.6
20260510065502 52 25 0.0 0.0 0.00 0.39 0.00 95 1011.7
20260510065056 52 25 0.0 0.0 0.00 0.39 0.00 95 1011.7
20260510064550 52 25 0.0 0.0 0.00 0.39 0.00 95 1011.7
20260510064042 52 25 0.0 0.0 0.00 0.39 0.00 95 1011.7
20260510063535 52 25 0.0 0.0 0.00 0.39 0.00 95 1011.7
20260510063029 52 25 0.0 0.0 0.00 0.39 0.00 95 1011.6
20260510062518 52 25 0.0 0.0 0.00 0.39 0.00 95 1011.4
20260510062015 52 25 0.0 0.0 0.00 0.39 0.00 95 1011.4
20260510061505 52 25 0.0 0.0 0.00 0.39 0.00 95 1011.4
20260510061104 52 25 0.0 0.0 0.00 0.39 0.00 95 1011.3
20260510060553 52 25 0.0 0.0 0.00 0.39 0.00 95 1011.3
20260510060047 52 25 0.0 0.0 0.00 0.39 0.00 95 1011.2
20260510055539 53 25 0.0 0.0 0.00 0.39 0.00 95 1011.2
20260510055032 53 25 0.0 0.0 0.00 0.39 0.00 95 1011.3
20260510054526 53 25 0.0 0.0 0.00 0.39 0.00 95 1011.3
20260510054018 53 25 0.0 0.0 0.00 0.39 0.00 95 1011.3
20260510053511 53 25 0.0 0.0 0.00 0.39 0.00 95 1011.5
20260510053004 53 25 0.0 0.0 0.00 0.39 0.00 95 1011.6
20260510052559 53 25 0.0 0.0 0.00 0.39 0.00 95 1011.5
20260510052053 53 25 0.0 0.0 0.00 0.39 0.00 95 1011.5
20260510051546 53 25 0.0 0.0 0.00 0.39 0.00 95 1011.6
20260510051040 53 25 0.0 0.0 0.00 0.39 0.00 95 1011.6
20260510050529 53 25 0.0 0.0 0.00 0.39 0.00 95 1011.6
20260510050018 53 25 0.0 0.0 0.00 0.39 0.00 95 1011.7
20260510045515 53 25 0.0 0.0 0.00 0.39 0.00 95 1011.6
20260510045004 53 25 0.0 0.0 0.00 0.39 0.00 95 1011.7
20260510044559 53 25 0.0 0.0 0.00 0.39 0.00 95 1011.7
20260510044053 53 25 0.0 0.0 0.00 0.39 0.00 95 1011.6
20260510043546 53 25 0.0 0.0 0.00 0.39 0.00 95 1011.7
20260510043038 53 25 0.0 0.0 0.00 0.39 0.00 95 1011.5
20260510042530 53 25 0.0 0.0 0.00 0.39 0.00 95 1011.4
20260510042022 53 25 0.0 0.0 0.00 0.39 0.00 95 1011.4
20260510041514 53 25 0.0 0.0 0.00 0.39 0.00 95 1011.4
20260510041007 53 25 0.0 0.0 0.00 0.39 0.00 95 1011.3
20260510040601 53 25 0.0 0.0 0.00 0.39 0.00 95 1011.2
20260510040053 53 25 0.0 0.0 0.00 0.39 0.00 95 1011.2
20260510035547 53 25 0.0 0.0 0.00 0.39 0.39 95 1011.2
20260510035041 53 25 0.0 0.0 0.00 0.39 0.39 95 1011.2
20260510034537 53 25 0.0 0.0 0.00 0.39 0.39 95 1011.2
20260510034023 53 25 0.0 0.0 0.00 0.39 0.39 95 1011.1
20260510033516 53 25 0.0 0.0 0.00 0.39 0.39 95 1011.2
20260510033010 53 25 0.0 0.0 0.00 0.39 0.39 95 1011.2
20260510032506 53 25 0.0 0.0 0.00 0.39 0.39 95 1011.1
20260510032057 53 25 0.0 0.0 0.00 0.39 0.39 95 1011.1
20260510031555 53 25 0.0 0.0 0.00 0.39 0.39 95 1011.1
20260510031046 53 25 0.0 0.0 0.00 0.39 0.39 95 1011.3
20260510030536 53 25 0.0 0.0 0.00 0.39 0.39 95 1011.5
20260510030035 53 25 0.0 0.0 0.00 0.39 0.39 95 1011.5
20260510025520 53 25 0.0 0.0 0.00 0.39 0.39 95 1011.6
20260510025013 53 25 0.0 0.0 0.00 0.39 0.39 95 1011.4
20260510024506 53 25 0.0 0.0 0.00 0.39 0.39 95 1011.5
20260510024059 53 25 0.0 0.0 0.00 0.39 0.39 95 1011.4
20260510023554 53 25 0.0 0.0 0.00 0.39 0.39 95 1011.4
20260510023046 53 25 0.0 0.0 0.00 0.39 0.39 95 1011.5
20260510022540 53 25 0.0 0.0 0.00 0.39 0.39 95 1011.4
20260510022032 53 25 0.0 0.0 0.00 0.39 0.39 95 1011.4
20260510021531 53 25 0.0 0.0 0.00 0.39 0.39 95 1011.3
20260510021018 53 25 0.0 0.0 0.00 0.39 0.39 95 1011.2
20260510020512 53 25 0.0 0.0 0.00 0.39 0.39 95 1011.3
20260510020003 53 24 0.0 0.0 0.00 0.39 0.39 95 1011.3
20260510015600 53 24 0.0 0.0 0.00 0.39 0.39 95 1011.4
20260510015051 53 24 0.0 0.0 0.00 0.39 0.39 95 1011.3
20260510014552 53 24 0.0 0.0 0.00 0.39 0.39 95 1011.3
20260510014038 53 24 0.0 0.0 0.00 0.39 0.39 95 1011.3
20260510013533 53 25 0.0 0.0 0.00 0.39 0.39 94 1011.2
20260510013023 53 24 0.0 0.0 0.00 0.39 0.39 94 1011.1
20260510012515 53 24 0.0 0.0 0.00 0.39 0.39 94 1011.1
20260510012008 53 24 0.0 0.0 0.00 0.39 0.39 94 1011.1
20260510011504 53 24 0.0 0.0 0.00 0.39 0.39 94 1011.0
20260510011057 53 24 0.0 0.0 0.00 0.39 0.39 94 1010.9
20260510010550 53 24 0.0 0.0 0.00 0.39 0.39 94 1010.8
20260510010043 53 38 0.0 0.0 0.00 0.39 0.39 94 1010.9
20260510005535 53 37 0.0 0.0 0.01 0.39 0.39 94 1010.9
20260510005028 53 37 0.0 0.0 0.01 0.39 0.39 94 1010.9
20260510004521 53 37 0.0 0.0 0.01 0.39 0.39 94 1010.9
20260510004014 53 38 0.0 0.0 0.01 0.39 0.39 94 1010.8
20260510003508 53 37 0.0 0.0 0.01 0.39 0.39 94 1010.8
20260510003059 53 37 0.0 0.0 0.01 0.39 0.39 94 1010.8
20260510002552 54 37 0.0 0.0 0.01 0.39 0.39 94 1010.7
20260510002044 54 38 0.0 0.0 0.01 0.39 0.39 94 1010.7
20260510001538 54 37 0.0 0.0 0.01 0.39 0.39 94 1010.6
20260510001031 54 37 0.0 0.0 0.01 0.39 0.39 94 1010.6
20260510000523 54 37 0.0 0.0 0.01 0.39 0.39 94 1010.7
20260510000019 54 37 0.0 0.0 0.00 0.56 0.38 94 1010.6
20260509235507 54 37 0.0 0.0 0.01 0.56 0.38 94 1010.5
20260509235102 54 37 0.0 0.0 0.02 0.56 0.38 94 1010.6
20260509234553 54 37 0.0 0.0 0.03 0.56 0.38 94 1010.7
20260509234045 54 38 0.0 0.0 0.04 0.56 0.38 94 1010.6
20260509233538 54 37 0.0 0.0 0.05 0.56 0.38 94 1010.7
20260509233031 54 38 0.0 0.0 0.06 0.56 0.38 94 1010.7
20260509232524 54 4 0.0 0.0 0.09 0.56 0.38 94 1010.7
20260509232016 54 4 0.0 0.9 0.11 0.56 0.38 94 1010.7
20260509231509 54 344 0.0 0.9 0.12 0.56 0.38 94 1010.4
20260509231002 54 50 0.0 0.0 0.13 0.56 0.38 94 1010.6
20260509230602 54 11 0.0 0.0 0.13 0.56 0.38 94 1010.5
20260509230050 54 11 0.0 0.0 0.14 0.56 0.38 94 1010.5
20260509225542 55 11 0.0 0.0 0.14 0.55 0.37 94 1010.9
20260509225037 55 11 0.0 0.0 0.14 0.54 0.36 94 1011.1
20260509224528 55 11 0.0 0.0 0.14 0.53 0.35 94 1011.2
20260509224019 55 11 0.0 0.0 0.13 0.52 0.34 94 1011.3
20260509223511 55 11 0.0 0.0 0.13 0.51 0.33 94 1011.4
20260509223006 55 10 0.0 0.0 0.11 0.49 0.31 94 1011.4
20260509222601 55 48 0.0 0.0 0.11 0.48 0.30 94 1011.4
20260509222051 55 47 0.0 0.0 0.08 0.45 0.27 94 1011.6
20260509221545 55 48 0.0 0.0 0.07 0.44 0.26 94 1011.6
20260509221037 55 48 0.0 0.0 0.06 0.43 0.25 94 1011.4
20260509220531 55 48 0.0 0.0 0.07 0.43 0.25 94 1011.3
20260509220022 55 48 0.0 0.0 0.07 0.42 0.24 94 1011.6
20260509215514 55 48 0.0 0.0 0.07 0.41 0.23 94 1011.5
20260509215009 55 48 0.0 0.0 0.07 0.40 0.22 94 1011.6
20260509214600 55 48 0.0 0.0 0.06 0.39 0.21 94 1011.7
20260509214054 55 48 0.0 0.0 0.06 0.39 0.21 94 1011.7
20260509213548 55 48 0.0 0.0 0.05 0.38 0.20 94 1011.7